Location: Omaha
(41.2590°N, 95.9380°W)
Time: 02:11:46
(UTC-05:00)

Vanguard 3 - All Passes

Search period start: 24 June 2018 00:00
Search period end: 04 July 2018 00:00
Orbit: 508 x 3264 km, 33.3° (Epoch: 23 June)

Date Brightness Start Highest point End Pass type
(mag) Time Alt. Az. Time Alt. Az. Time Alt. Az.
24 Jun - 03:13:38 10° SSW 03:17:20 25° SSE 03:22:31 10° ESE visible
24 Jun - 05:22:56 10° WSW 05:28:25 47° S 05:37:51 10° ESE daylight
24 Jun - 07:33:30 10° W 07:40:53 41° SSW 07:53:16 10° SE daylight
24 Jun - 09:46:09 10° WSW 09:54:24 23° SSW 10:05:50 10° SSE daylight
25 Jun - 02:02:35 10° S 02:04:19 12° SSE 02:06:16 10° ESE visible
25 Jun - 04:10:21 10° SW 04:14:47 38° SSE 04:21:49 10° ESE visible
25 Jun - 06:20:24 10° WSW 06:26:31 44° S 06:37:02 10° ESE daylight
25 Jun - 08:31:47 10° WSW 08:39:25 29° SSW 08:51:08 10° SSE daylight
25 Jun - 10:48:36 10° SW 10:53:10 12° SW 10:58:21 10° SSW daylight
26 Jun - 02:58:03 10° SW 03:01:31 25° SSE 03:06:14 10° ESE visible
26 Jun - 05:07:34 10° WSW 05:12:35 43° S 05:20:57 10° ESE visible
26 Jun - 07:18:12 10° WSW 07:24:49 35° SSW 07:35:37 10° SE daylight
26 Jun - 09:31:25 10° WSW 09:38:05 18° SSW 09:46:54 10° S daylight
27 Jun - 01:46:30 10° S 01:48:28 13° SSE 01:50:39 10° ESE visible
27 Jun - 03:54:56 10° WSW 03:59:02 36° S 04:05:17 10° ESE visible
27 Jun - 06:05:06 10° WSW 06:10:38 38° S 06:19:49 10° SE daylight
27 Jun - 08:16:44 10° WSW 08:23:17 24° SSW 08:32:53 10° SSE daylight
28 Jun - 02:42:30 10° SW 02:45:47 25° SSE 02:50:05 10° ESE visible
28 Jun - 04:52:15 10° WSW 04:56:50 38° S 05:04:07 10° ESE visible
28 Jun - 07:03:02 10° WSW 07:08:52 28° SSW 07:17:55 10° SE daylight
28 Jun - 09:17:29 10° SW 09:21:54 13° SSW 09:27:13 10° S daylight
29 Jun - 01:30:30 10° SSW 01:32:41 15° SSE 01:35:04 10° ESE visible
29 Jun - 03:39:32 10° WSW 03:43:20 34° S 03:48:50 10° ESE visible
29 Jun - 05:49:52 10° WSW 05:54:48 32° S 06:02:37 10° SE daylight
29 Jun - 08:02:00 10° WSW 08:07:16 18° SSW 08:14:25 10° SSE daylight
30 Jun - 02:26:56 10° SW 02:30:06 26° SSE 02:34:01 10° ESE visible
30 Jun - 04:36:57 10° WSW 04:41:06 33° S 04:47:24 10° ESE visible
30 Jun - 06:48:02 10° WSW 06:52:58 22° SSW 07:00:10 10° SSE daylight
01 Jul - 01:14:30 10° SSW 01:16:57 17° SSE 01:19:31 10° ESE night (unlit)
01 Jul - 03:24:09 10° WSW 03:27:42 31° S 03:32:30 10° ESE visible
01 Jul - 05:34:43 10° WSW 05:39:03 26° SSW 05:45:27 10° SE daylight
01 Jul - 07:48:01 10° SW 07:51:20 13° SSW 07:55:20 10° S daylight
02 Jul - 00:03:11 10° SSE 00:03:44 10° SSE 00:04:15 10° SSE night (unlit)
02 Jul - 02:11:20 10° SW 02:14:27 26° S 02:18:04 10° ESE visible
02 Jul - 04:21:41 10° WSW 04:25:26 28° S 04:30:43 10° SE visible
02 Jul - 06:33:20 10° WSW 06:37:10 17° SSW 06:42:14 10° SSE daylight
03 Jul - 00:58:31 10° SW 01:01:17 19° SSE 01:04:01 10° ESE night (unlit)
03 Jul - 03:08:45 10° WSW 03:12:04 28° S 03:16:15 10° ESE visible
03 Jul - 05:19:44 10° WSW 05:23:20 20° SSW 05:28:15 10° SSE visible
03 Jul - 23:45:50 10° SSW 23:48:01 14° SSE 23:50:00 10° SE night (unlit)
